Wind_Speed
15 15 15 14 13 13 12 13 13 14 14 14 14 14 15 15 14 13 9 12 10 13 16 13 9 8 13 20 20 17 13 17 23 19 13 7 15 19 12 12 10 4 3 3 6
15 15 15 15 15 14 12 12 12 13 14 14 13 12 12 13 15 6 3 4 1 5 9 11 16 15 19 21 18 20 17 26 18 14 9 19 18 12 8 17 16 10 8 6 6
15 15 15 16 15 14 12 11 12 14 15 16 14 13 13 14 5 0 5 5 10 8 5 7 14 19 25 21 30 26 26 22 24 19 17 23 22 17 16 16 19 15 12 4 2
15 15 16 16 14 14 12 13 13 15 14 12 12 15 15 9 3 2 14 16 15 14 5 5 10 21 22 26 27 27 30 33 33 21 15 21 23 28 28 25 22 11 12 15 14
14 14 15 15 13 12 11 13 15 17 15 13 13 14 13 3 4 6 11 11 7 6 8 8 12 17 25 20 30 29 29 31 31 30 22 23 28 25 28 29 26 26 23 24 23
14 14 14 14 12 12 10 13 14 17 14 15 16 15 6 5 9 7 14 10 6 7 6 9 11 13 18 26 26 25 29 36 35 25 27 27 31 26 35 30 30 29 29 29 26
16 15 14 13 12 12 11 11 14 16 15 13 16 12 2 6 13 11 12 10 10 6 9 9 14 14 6 15 27 30 27 26 26 34 29 24 29 36 39 33 32 26 28 29 29
16 14 14 13 11 12 13 15 15 14 9 10 10 7 3 11 18 15 12 12 11 9 8 8 9 18 22 19 21 17 23 25 34 26 28 26 30 37 37 34 33 35 32 32 33
18 14 12 10 11 12 16 18 13 8 6 10 6 3 2 8 14 13 12 11 14 11 8 7 7 17 17 18 17 21 24 31 30 28 24 21 37 34 42 30 29 30 30 30 29
20 18 14 12 12 12 17 16 10 4 8 4 4 2 3 11 17 16 8 12 10 10 11 10 10 12 14 16 22 27 27 28 28 23 27 28 35 29 28 17 31 33 32 31 29
21 19 15 11 9 12 16 11 6 2 6 6 4 6 8 15 15 10 9 10 9 10 13 13 11 14 17 20 26 25 27 26 21 21 27 29 35 30 31 36 31 31 32 33 34
23 19 16 11 7 11 11 4 3 6 8 7 6 6 8 7 15 11 12 7 9 12 11 10 16 16 13 17 21 23 26 30 20 17 21 26 31 27 27 29 35 35 35 35 34
26 21 17 9 6 6 3 4 5 7 7 4 5 7 5 12 12 11 13 9 14 16 14 15 16 11 11 14 20 24 25 24 27 17 22 20 27 26 23 24 27 32 34 34 34
27 24 16 6 1 4 2 5 10 1 5 5 5 3 6 16 9 13 4 12 14 17 15 16 13 14 15 20 18 21 22 25 24 22 20 20 21 23 24 28 28 34 36 35 34
26 20 12 2 3 2 3 9 5 2 4 2 2 3 12 10 10 2 10 10 16 18 14 19 19 17 17 19 20 22 19 24 20 21 24 30 18 18 18 21 22 20 26 29 31
25 12 6 4 3 2 8 6 4 5 0 0 3 9 11 11 5 9 14 14 14 15 15 19 20 18 22 21 24 22 18 21 20 18 20 27 23 20 20 22 19 17 22 23 17
22 6 1 2 1 7 9 1 5 5 2 2 8 12 16 8 10 9 14 11 7 9 11 15 10 10 15 17 20 17 17 12 17 19 18 20 19 18 7 7 7 1 7 10 9
19 2 2 1 3 8 5 6 5 2 5 10 10 17 7 9 8 13 11 12 4 9 12 8 12 3 5 16 20 20 19 14 20 17 22 26 22 17 21 23 29 17 5 6 7
13 2 1 3 5 9 8 4 2 5 5 9 16 8 3 5 9 12 12 7 5 7 9 12 8 17 3 12 19 21 19 21 24 20 15 19 25 24 14 10 10 10 6 5 10
10 2 1 5 7 4 5 3 3 3 8 8 12 4 12 14 11 10 10 4 8 2 7 12 18 11 2 6 20 23 19 14 13 15 17 15 22 12 21 24 12 5 3 8 12
7 4 3 6 6 3 2 4 6 5 8 6 9 13 13 11 10 12 6 13 3 10 15 15 9 16 12 2 10 12 17 10 15 13 16 12 13 16 7 12 11 4 8 13 18
7 3 5 8 3 2 4 7 6 3 3 9 8 10 10 12 11 13 12 9 19 15 18 9 7 12 17 7 10 2 9 7 11 14 17 16 4 5 18 13 6 5 11 17 20
10 4 6 5 2 4 5 7 4 5 6 5 7 7 12 15 7 8 14 10 18 15 6 8 4 10 9 6 11 6 10 13 13 7 15 15 8 12 9 4 7 14 16 18 22
6 3 2 4 3 5 8 2 4 2 11 5 11 15 11 10 13 10 18 10 14 16 15 14 9 13 14 17 6 10 10 12 12 11 16 17 20 13 14 13 14 20 19 24 24
6 2 3 4 2 9 7 6 7 5 4 13 6 7 10 10 18 19 10 20 22 25 18 6 13 15 17 19 17 16 18 17 19 19 19 18 18 18 18 17 16 22 25 24 20
6 5 6 13 8 8 1 3 7 5 9 10 11 12 14 17 16 23 20 18 7 12 11 6 10 12 17 17 17 20 20 21 22 22 18 22 25 24 25 29 25 23 20 19 20
4 5 3 7 5 5 2 5 10 14 10 10 10 14 18 19 22 29 30 29 18 11 13 8 8 8 13 10 10 12 16 17 21 20 18 21 21 20 20 21 20 22 20 20 19
Wind_Direction
11 7 4 0 353 345 337 332 330 330 330 331 334 336 334 324 318 310 285 249 252 243 233 234 236 222 207 218 220 228 239 242 242 233 243 239 249 243 248 250 217 240 144 63 200
9 8 5 1 358 355 353 348 344 339 338 340 344 348 341 334 324 302 255 234 350 329 256 243 233 214 210 217 217 218 228 239 247 257 237 246 250 250 237 225 224 220 163 80 84
6 3 2 0 0 359 0 2 358 351 343 344 345 339 340 342 331 66 35 352 324 335 302 251 231 223 225 221 218 223 239 246 245 247 242 251 257 245 245 246 221 216 206 214 245
1 359 357 357 359 358 3 0 360 353 348 346 335 336 341 2 353 355 329 320 312 305 302 257 229 219 231 227 227 239 240 242 258 244 239 249 259 260 250 248 242 220 243 268 275
355 355 355 354 355 356 353 355 353 354 2 8 360 350 353 315 30 342 17 10 356 343 248 248 246 233 236 237 235 237 241 246 246 252 241 253 249 251 249 246 250 251 256 263 269
350 353 353 353 353 351 348 345 342 347 348 348 352 353 4 76 1 348 342 333 323 331 302 246 240 247 275 257 247 239 248 247 251 239 245 242 251 251 246 250 253 257 258 259 259
347 346 351 354 355 354 350 339 332 331 331 339 350 9 36 22 357 352 337 321 301 284 306 292 250 242 264 259 257 256 260 261 249 241 239 245 255 247 248 246 254 252 254 255 256
351 346 346 349 353 352 350 337 324 317 318 339 355 15 300 360 7 354 340 343 326 289 277 293 263 246 249 260 277 261 246 245 240 232 239 230 254 250 244 236 241 254 254 259 261
353 344 338 340 344 348 349 344 337 337 344 340 24 333 47 340 349 341 323 328 321 301 265 266 246 244 244 235 252 242 243 236 246 231 223 216 244 252 254 253 242 247 261 259 261
351 344 335 332 340 343 349 347 346 336 349 14 349 255 253 335 334 332 326 312 302 297 267 246 244 244 230 233 236 237 238 246 258 238 227 224 242 249 257 244 247 245 249 252 255
348 343 336 323 337 346 354 348 318 244 298 283 309 288 313 322 320 309 321 314 282 272 270 237 260 255 261 253 252 263 268 260 262 250 256 230 241 246 246 255 257 255 255 257 260
345 341 336 317 322 348 11 20 16 314 296 279 262 282 282 303 307 318 330 295 304 293 296 252 248 266 284 280 276 257 255 257 256 282 251 244 252 250 244 248 251 255 255 262 268
342 337 329 313 291 330 7 11 342 327 268 297 231 269 291 312 301 294 321 304 296 288 275 267 276 296 256 268 251 254 253 250 253 263 236 250 252 253 248 251 254 256 258 262 265
341 336 327 312 330 335 339 321 332 298 267 133 188 179 287 321 256 307 293 303 288 286 288 276 289 278 264 263 264 266 250 253 251 243 243 219 256 244 238 242 243 249 253 257 263
343 338 332 245 172 4 297 323 314 160 276 64 184 298 308 306 306 280 316 306 292 295 279 267 281 289 268 258 263 266 264 251 238 242 249 249 262 263 259 258 257 255 254 255 261
344 343 2 102 117 330 340 337 151 233 264 141 279 316 315 325 295 300 312 303 280 275 273 270 271 264 274 271 269 265 251 245 243 241 236 236 239 255 253 254 253 250 250 253 260
345 341 64 96 259 332 342 173 248 278 102 22 325 321 316 312 306 342 332 313 331 312 310 309 303 329 288 263 246 240 244 238 220 232 238 228 232 242 210 4 235 143 241 245 273
346 282 185 13 342 337 324 243 269 358 327 332 316 311 303 348 335 334 319 319 300 331 310 328 310 349 354 273 272 227 227 234 225 228 232 227 239 223 228 257 252 290 249 248 320
351 155 159 309 331 340 279 262 275 353 348 319 313 297 327 296 320 316 324 320 332 354 333 317 296 311 280 304 288 240 247 246 267 282 254 222 214 249 253 229 233 221 293 321 326
7 190 272 305 325 322 273 292 290 306 312 303 303 296 317 327 313 327 316 339 301 335 304 304 305 308 190 305 266 248 229 228 245 256 239 225 206 223 212 214 224 134 37 12 0
12 251 317 339 340 268 274 325 310 310 309 306 305 295 302 319 299 309 278 308 21 309 311 308 275 294 295 92 283 219 219 249 266 261 263 223 213 212 232 132 127 94 28 11 9
4 269 324 358 270 289 303 341 336 305 248 288 283 283 293 306 296 294 286 290 311 309 303 322 292 289 293 181 243 299 317 265 249 221 258 279 74 88 120 143 134 44 11 359 355
337 296 327 19 354 339 334 297 277 292 323 297 288 281 306 291 305 299 293 295 308 301 327 2 275 309 300 172 219 236 272 258 240 289 267 255 242 155 159 187 345 336 340 335 338
341 323 7 43 26 330 343 302 305 270 290 265 283 290 287 295 286 276 290 301 292 300 301 300 264 268 278 296 284 274 267 252 255 260 253 248 267 219 227 301 313 307 320 320 327
357 8 348 311 314 329 303 284 299 316 276 300 287 271 302 298 309 285 300 304 296 285 273 243 264 267 274 275 276 274 269 262 258 256 265 264 269 270 275 291 306 302 305 309 320
356 345 329 299 296 295 40 292 302 316 304 288 283 288 303 287 279 288 295 296 265 295 283 240 268 286 285 278 262 263 261 260 256 250 251 258 266 268 279 280 284 289 300 307 312
341 328 271 303 296 304 328 331 308 314 297 259 294 291 290 293 304 296 290 283 270 264 268 283 260 271 275 285 291 276 265 261 253 250 253 256 263 272 269 269 275 283 290 292 301
Height
1531 1529 1526 1524 1521 1519 1517 1515 1512 1510 1507 1506 1504 1502 1500 1498 1496 1495 1499 1497 1496 1495 1497 1499 1500 1502 1503 1503 1503 1503 1494 1484 1478 1480 1481 1482 1480 1477 1478 1478 1478 1476 1475 1477 1475
1530 1528 1526 1523 1520 1518 1516 1514 1512 1509 1507 1505 1503 1501 1499 1497 1495 1496 1495 1492 1493 1492 1494 1494 1498 1500 1500 1497 1497 1493 1483 1473 1472 1474 1480 1479 1477 1473 1477 1475 1475 1476 1478 1477 1477
1530 1527 1525 1522 1520 1517 1515 1513 1511 1509 1506 1504 1501 1499 1497 1494 1493 1495 1492 1491 1491 1493 1492 1492 1495 1495 1494 1489 1488 1483 1472 1469 1470 1474 1480 1479 1475 1473 1475 1469 1469 1471 1474 1477 1479
1529 1526 1524 1521 1519 1516 1514 1512 1510 1508 1506 1503 1500 1497 1495 1494 1491 1496 1492 1490 1490 1490 1491 1493 1493 1490 1485 1478 1481 1478 1470 1473 1471 1473 1478 1477 1475 1469 1469 1468 1469 1471 1474 1477 1476
1528 1526 1523 1520 1517 1515 1512 1510 1508 1505 1503 1501 1499 1497 1495 1496 1496 1493 1491 1490 1489 1490 1491 1491 1489 1487 1476 1474 1476 1466 1467 1469 1471 1472 1472 1478 1470 1467 1462 1465 1468 1469 1471 1472 1474
1527 1525 1522 1519 1516 1514 1512 1509 1506 1504 1501 1499 1497 1495 1495 1493 1494 1492 1491 1489 1489 1489 1488 1488 1487 1485 1479 1473 1467 1465 1465 1464 1465 1465 1468 1471 1463 1470 1456 1461 1463 1466 1467 1466 1469
1526 1523 1520 1517 1515 1512 1510 1508 1505 1502 1500 1498 1497 1495 1497 1498 1494 1493 1491 1489 1487 1486 1486 1485 1484 1484 1475 1475 1471 1468 1465 1461 1454 1456 1459 1467 1459 1448 1453 1456 1454 1459 1461 1460 1462
1525 1522 1519 1517 1514 1512 1509 1506 1503 1500 1498 1497 1496 1496 1496 1494 1492 1491 1489 1487 1484 1483 1482 1482 1481 1479 1476 1474 1469 1466 1462 1457 1438 1451 1452 1464 1448 1428 1443 1447 1448 1450 1454 1452 1453
1524 1520 1518 1515 1513 1510 1507 1504 1500 1498 1497 1496 1497 1498 1494 1494 1494 1492 1489 1487 1484 1482 1480 1479 1478 1474 1471 1469 1467 1457 1447 1439 1437 1438 1446 1457 1438 1429 1435 1438 1437 1440 1443 1445 1446
1523 1519 1516 1513 1511 1509 1506 1503 1500 1498 1497 1497 1497 1500 1495 1494 1491 1489 1488 1485 1483 1480 1479 1477 1474 1467 1463 1460 1449 1444 1438 1437 1435 1426 1434 1437 1428 1430 1428 1431 1430 1433 1438 1438 1440
1522 1518 1515 1512 1510 1508 1506 1504 1505 1502 1500 1498 1498 1497 1494 1492 1491 1488 1486 1484 1481 1479 1472 1465 1466 1457 1454 1450 1446 1443 1437 1427 1424 1424 1425 1421 1419 1423 1426 1426 1424 1426 1428 1431 1435
1520 1516 1513 1510 1509 1508 1506 1507 1507 1508 1500 1496 1495 1495 1494 1494 1488 1485 1484 1482 1477 1470 1466 1465 1459 1454 1454 1454 1450 1445 1444 1434 1432 1431 1425 1420 1413 1415 1417 1415 1418 1420 1422 1424 1426
1517 1513 1510 1508 1508 1508 1508 1508 1506 1504 1500 1493 1493 1493 1492 1491 1485 1482 1482 1478 1474 1467 1461 1458 1452 1452 1456 1455 1455 1450 1444 1440 1435 1429 1426 1423 1415 1411 1407 1411 1414 1416 1419 1420 1421
1514 1510 1507 1506 1508 1507 1507 1505 1504 1502 1491 1489 1488 1489 1489 1485 1479 1480 1479 1479 1472 1464 1460 1452 1450 1451 1451 1450 1448 1443 1439 1437 1435 1433 1428 1420 1415 1403 1402 1402 1404 1406 1409 1411 1413
1511 1507 1504 1502 1505 1507 1507 1503 1502 1503 1479 1488 1487 1488 1485 1483 1482 1475 1476 1472 1466 1460 1459 1449 1446 1446 1444 1441 1440 1436 1434 1431 1429 1427 1426 1418 1416 1394 1395 1396 1394 1396 1400 1403 1403
1509 1505 1503 1504 1504 1505 1503 1501 1503 1494 1483 1483 1485 1483 1480 1475 1475 1473 1470 1467 1462 1457 1451 1445 1444 1444 1440 1438 1437 1434 1431 1428 1425 1420 1415 1405 1409 1394 1393 1387 1385 1388 1391 1395 1396
1507 1505 1504 1504 1506 1503 1501 1502 1491 1482 1485 1482 1483 1480 1477 1472 1469 1469 1465 1459 1459 1460 1444 1441 1436 1439 1438 1434 1429 1430 1431 1429 1426 1417 1407 1398 1405 1397 1381 1384 1378 1385 1390 1392 1393
1506 1504 1504 1504 1503 1502 1501 1497 1488 1487 1483 1485 1483 1478 1474 1473 1468 1467 1462 1456 1454 1460 1453 1450 1443 1441 1442 1443 1431 1426 1421 1422 1413 1401 1399 1396 1397 1384 1383 1384 1385 1386 1389 1389 1388
1504 1504 1504 1503 1502 1501 1500 1486 1489 1486 1490 1488 1482 1473 1469 1470 1468 1463 1459 1458 1456 1459 1461 1451 1445 1435 1444 1443 1441 1426 1420 1413 1406 1400 1379 1370 1383 1384 1376 1383 1382 1381 1385 1386 1387
1504 1505 1505 1502 1501 1500 1495 1494 1488 1493 1493 1489 1484 1478 1474 1468 1468 1463 1459 1456 1457 1458 1458 1453 1447 1429 1439 1442 1427 1420 1419 1418 1409 1417 1391 1365 1371 1376 1365 1376 1377 1383 1386 1386 1384
1504 1503 1503 1501 1499 1498 1495 1489 1493 1493 1495 1490 1483 1481 1476 1474 1471 1464 1461 1456 1456 1456 1454 1451 1446 1430 1423 1440 1434 1412 1410 1421 1414 1401 1386 1371 1361 1353 1362 1364 1378 1384 1386 1385 1381
1505 1500 1501 1500 1501 1500 1494 1497 1498 1492 1492 1490 1486 1481 1477 1474 1471 1466 1461 1458 1459 1457 1452 1450 1445 1432 1419 1418 1422 1420 1421 1412 1411 1411 1395 1375 1367 1360 1364 1376 1379 1381 1383 1382 1380
1507 1504 1501 1499 1498 1496 1496 1496 1496 1492 1490 1489 1486 1481 1480 1476 1477 1465 1462 1459 1461 1458 1455 1455 1441 1434 1411 1414 1414 1415 1417 1416 1411 1405 1406 1381 1371 1368 1372 1372 1375 1377 1381 1383 1381
1509 1504 1501 1501 1502 1500 1495 1490 1491 1492 1490 1488 1486 1482 1478 1474 1470 1466 1459 1459 1459 1457 1456 1456 1447 1440 1427 1410 1416 1418 1414 1410 1407 1410 1392 1384 1371 1362 1365 1369 1376 1378 1381 1380 1379
1513 1510 1509 1498 1498 1501 1498 1495 1490 1488 1488 1487 1480 1479 1481 1477 1469 1462 1456 1457 1454 1450 1447 1448 1437 1425 1415 1411 1412 1412 1409 1407 1402 1397 1393 1381 1379 1370 1371 1374 1378 1382 1382 1379 1376
1516 1515 1511 1506 1504 1499 1495 1489 1489 1487 1488 1484 1483 1481 1482 1477 1472 1463 1459 1455 1456 1446 1442 1440 1435 1425 1417 1407 1404 1403 1399 1397 1394 1392 1391 1389 1384 1378 1378 1379 1380 1379 1377 1376 1375
1515 1515 1513 1506 1499 1497 1492 1492 1492 1492 1484 1481 1481 1480 1476 1467 1461 1456 1453 1450 1450 1451 1447 1441 1431 1427 1415 1407 1405 1401 1388 1382 1378 1379 1380 1379 1374 1369 1370 1370 1373 1375 1376 1374 1373